www.pogodaiklimat.ru

Погода и климат >> Архив погоды >> Индия >> Jaisalmer


ПОГОДА в Jaisalmer

  • Прогноз погоды в Jaisalmer
  • Монитор погоды в Jaisalmer
  • Климат города

АРХИВ ПОГОДЫ в Jaisalmer

Время (UTC), дата Ветер
(напр.,м/с)
 
Видим.   Явления Облачность Т
(С)
Тd
(С)
f
(%)
Тe
(С)
Тes
(С)
Комфортность P
(гПа)
Po
(гПа)
Тmin
(С)
Tmax
(С)
R
(мм)
R24
(мм)
S
(см)
12 8.08 Ю 1 4000 м 9/4 600 м
[Sc Ac trans Ci fib]
+35.0 +21.9 47 +44 +45 опасность
перегрева
995.0 995.0 +37.0
15 8.08 Ю 3 4000 м 9/4 900 м
[Sc Ac trans]
+32.4 +22.5 56 +42 +42 опасность
перегрева
996.7 997.0
18 8.08 Ю 4 4000 м 9/5 900 м
[Sc Ac trans]
+31.0 +22.9 62 +41 +41 опасность
перегрева
998.4 998.0
21 8.08 ЮВ 1 4000 м гроза, ливневой дождь 10/10 900 м
[Cb cap]
+27.6 +25.0 86 +40 +40 очень
душно
999.1 999.0 2
00 9.08 Ю 1 4000 м слабый дождь {гроза} 10/8 900 м
[Sc As op]
+26.8 +25.7 94 +40 +40 очень
душно
998.6 999.0 4
03 9.08 ЮЗ 1 2000 м мгла {дождь} 10/8 900 м
[Sc As op]
+27.4 +25.4 89 +40 +40 очень
душно
999.8 1000.0 +25.8 +37.0 4
06 9.08 ЮЗ 1 2000 м мгла 10/8 900 м
[Sc As op]
+28.2 +24.8 82 +40 +41 очень
душно
1001.5 1002.0
09 9.08 Ю 2 2000 м мгла {дождь} 10/4 900 м
[Sc As trans]
+28.2 +25.7 86 +42 +46 опасность
перегрева
1000.7 1001.0 1
12 9.08 ЮЗ 2 4000 м 5/1 900 м
[Sc Ac trans]
+31.6 +25.1 69 +46 +48 опасность
перегрева
998.8 999.0 +31.9 1
15 9.08 ЮЗ 2 4000 м 5/1 900 м
[Sc Ac trans]
+31.6 +25.1 69 +46 +46 опасность
перегрева
998.8 999.0 +31.9 1
18 9.08 ЮЗ 2 4000 м 4/0
[Ac trans]
+28.4 +26.2 88 +43 +43 опасность
перегрева
1001.1 1001.0 1
21 9.08 ЮЗ 3 4000 м 4/4 1050 м
[Sc]
+28.0 +25.4 86 +41 +41 опасность
перегрева
1000.3 1000.0 1
00 10.08 ЮЗ 3 4000 м 1/0
[Ac trans]
+26.8 +23.6 83 +37 +37 очень
душно
1000.5 1001.0 1
03 10.08 ЮЗ 3 4000 м 8/3 900 м
[Sc Ci sp]
+29.0 +22.9 70 +39 +41 очень
душно
1001.0 1001.0 +26.2 +31.9 1
06 10.08 ЮЗ 3 4000 м ясно +33.6 +23.2 55 +44 +60 опасность
перегрева
1001.1 1001.0
09 10.08 ЮЗ 3 4000 м 1/1 900 м
[Sc]
+37.2 +23.2 45 +47 +60 опасность
перегрева
998.9 999.0
12 10.08 Ю 3 4000 м 5/5 900 м
[Sc diur, vesp]
+37.0 +22.9 44 +46 +48 опасность
перегрева
997.2 997.0 +38.1
15 10.08 ЮЗ 2 4000 м 3/1 900 м
[St Ac trans]
+33.8 +22.1 51 +43 +43 опасность
перегрева
998.0 998.0
18 10.08 ЮЗ 3 4000 м 3/1 900 м
[Sc Ac trans]
+31.4 +23.3 62 +42 +42 опасность
перегрева
998.7 999.0
21 10.08 ЮЗ 2 4000 м 3/1 900 м
[Sc Ac trans]
+29.6 +23.8 71 +41 +41 опасность
перегрева
998.5 999.0
00 11.08 ЮЗ 2 4000 м 3/1 900 м
[Sc Ac trans]
+26.6 +24.0 86 +37 +37 очень
душно
997.9 998.0
03 11.08 ЮЗ 7 4000 м 6/6 600 м
[Sc]
+27.4 +23.9 81 +38 +38 очень
душно
998.1 998.0 +25.5 +38.1
06 11.08 ЮЗ 7 4000 м 5/5 600 м
[Sc]
+31.4 +23.9 64 +43 +45 опасность
перегрева
997.4 997.0
09 11.08 ЮЗ 6 4000 м 3/0
[Ci fib]
+34.8 +24.3 55 +47 +55 опасность
перегрева
995.0 995.0
12 11.08 ЮЗ 6 4000 м 3/0
[Ci fib]
+34.4 +23.2 52 +45 +46 опасность
перегрева
993.0 993.0 +36.2
15 11.08 ЮЗ 7 4000 м 1/1 600 м
[Sc]
+31.2 +24.0 66 +43 +43 опасность
перегрева
993.7 994.0
18 11.08 ЮЗ 7 4000 м 1/1 600 м
[Sc]
+29.0 +23.2 71 +39 +39 очень
душно
994.5 995.0
21 11.08 Ю 6 4000 м 3/3 600 м
[Sc]
+27.2 +23.4 80 +37 +37 очень
душно
994.2 994.0
00 12.08 ЮЗ 7 4000 м 9/9 450 м
[St]
+26.6 +23.4 83 +36 +36 очень
душно
992.5 993.0
03 12.08 ЮЗ 6 4000 м 9/9 450 м
[St]
+27.2 +22.8 77 +36 +36 очень
душно
993.2 993.0 +25.8 +36.2
06 12.08 ЮЗ 6 2000 м пыльный позёмок 6/6 900 м
[Cb calv]
+31.0 +22.9 62 +41 +44 опасность
перегрева
992.9 993.0
09 12.08 ЮЗ 7 2000 м пыльный позёмок 6/1 900 м
[Sc Ci sp]
+34.0 +23.0 53 +44 +49 опасность
перегрева
991.2 991.0
12 12.08 ЮЗ 6 2000 м пыльный позёмок 6/0
[Ci sp]
+33.6 +22.6 53 +43 +44 опасность
перегрева
990.3 990.0 +35.0
15 12.08 ЮЗ 6 2000 м пыльный позёмок 5/3 600 м
[Sc Ci sp]
+31.0 +23.2 63 +41 +41 опасность
перегрева
991.0 991.0
18 12.08 Ю 6 2000 м пыльный позёмок 3/0
[Ci sp]
+28.8 +23.9 75 +40 +40 очень
душно
992.1 992.0
21 12.08 Ю 6 2000 м пыльный позёмок ясно +27.0 +24.1 84 +37 +37 очень
душно
992.1 992.0
00 13.08 Ю 7 2000 м пыльный позёмок ясно +26.6 +22.8 80 +35 +35 очень
душно
991.3 991.0
03 13.08 ЮЗ 6 2000 м пыльный позёмок 9/9 450 м
[Frnb]
+27.8 +22.2 72 +36 +37 очень
душно
993.1 993.0 +25.8 +35.0
06 13.08 ЮЗ 6 2000 м пыльный позёмок 9/6 750 м
[Sc Ci sp]
+31.0 +22.2 60 +40 +43 очень
душно
993.5 994.0
09 13.08 Ю 6 2000 м пыльный позёмок 9/4 750 м
[Sc Ci sp]
+34.6 +22.8 50 +44 +48 опасность
перегрева
992.4 992.0
12 13.08 Ю 5 2000 м пыльный позёмок туман 8/0
[Ci sp]
+34.8 +22.0 47 +43 +44 опасность
перегрева
991.9 992.0 +35.2
15 13.08 ЮЗ 6 2000 м пыльный позёмок 5/0
[Ci sp]
+32.0 +22.0 56 +41 +41 опасность
перегрева
993.4 993.0
18 13.08 ЮЗ 5 4000 м 3/0
[Ci sp]
+30.0 +23.0 66 +40 +40 очень
душно
995.1 995.0
21 13.08 ЮЗ 5 4000 м ясно +28.4 +22.8 72 +38 +38 очень
душно
994.9 995.0
00 14.08 ЮЗ 3 4000 м 8/8 450 м
[St]
+27.2 +23.4 80 +37 +37 очень
душно
995.5 996.0
03 14.08 Ю 4 2000 м мгла 9/9 450 м
[Frnb]
+27.4 +23.9 81 +38 +38 очень
душно
996.8 997.0 +25.8 +35.2
06 14.08 Ю 4 2000 м мгла 10/10 900 м
[Sc diur, vesp Ci sp]
+31.0 +23.5 64 +42 +42 опасность
перегрева
996.7 997.0
09 14.08 Ю 4 2000 м мгла 9/5 900 м
[Sc Ac trans]
+32.8 +23.6 59 +44 +47 опасность
перегрева
995.4 995.0
12 14.08 Ю 5 2000 м мгла 9/6 900 м
[Sc Ac trans]
+32.6 +23.1 57 +43 +43 опасность
перегрева
994.0 994.0 +33.6
15 14.08 Ю 3 2000 м мгла 8/4 900 м
[Sc Ac trans]
+31.0 +23.5 64 +42 +42 опасность
перегрева
994.6 995.0
18 14.08 ЮЗ 3 2000 м мгла 5/1 600 м
[Sc Ac trans]
+30.2 +23.9 69 +42 +42 опасность
перегрева
996.1 996.0
21 14.08 ЮЗ 3 2000 м мгла 6/3 900 м
[Sc Ac trans]
+28.4 +24.1 78 +40 +40 очень
душно
996.0 996.0
00 15.08 Ю 5 2000 м мгла 8/4 900 м
[Sc Ac trans]
+27.4 +23.6 80 +37 +37 очень
душно
996.0 996.0
03 15.08 ЮЗ 4 2000 м мгла 10/5 450 м
[St Ci sp]
+27.8 +23.4 77 +38 +39 очень
душно
997.1 997.0 +26.6 +33.6
06 15.08 ЮЗ 4 2000 м мгла 10/5 900 м
[Sc Ci sp]
+31.0 +23.5 64 +42 +47 опасность
перегрева
997.4 997.0

 

Местоположение метеостанции Jaisalmer (Rajasthan, Индия): широта 26.90 долгота 70.92 высота над уровнем моря 231 м.

В архиве по умолчанию представлена погода в Jaisalmer за последнюю неделю. Архивные данные за месяц целиком и за предыдущие месяцы, начиная с января 2011 года, Вы можете получить, выбрав интересующий диапазон дат из раскрывающегося списка и нажав кнопку "Ввод!".


*Определитесь, кто Вы:
робот инопланетянин человек

Внимание! Время в таблицах - всемирное. Для получения местного времени необходимо прибавить поправку, которая в Jaisalmer равна 5.5 ч.

Смотрите также архив погоды в соседних городах и на ближайших метеорологических станциях:

Погода в Barmer (Rajasthan, Индия) (136 км)
Погода в Chhor (Пакистан) (191 км)
Погода в Khanpur (Пакистан) (196 км)
Погода в Rohri (Пакистан) (217 км)
Погода в Jodhpur (Rajasthan, Индия) (219 км)
Погода в Nawabshah (Пакистан) (264 км)
Погода в Bikaner (Rajasthan, Индия) (265 км)
Погода в Pad Idan (Пакистан) (277 км)
Погода в Jacobabad (Пакистан) (287 км)
Погода в Bahawalpur (Пакистан) (291 км)

Пояснения к столбцам:

Ветер - указаны скорость ветра в м/с - средняя за 10 мин, порывы в срок и между сроками (в фигурных скобках) и направление, откуда дует ветер: С - северный, СВ - северо-восточный, В - восточный, ЮВ - юго-восточный, Ю - южный, ЮЗ - юго-западный, З - западный, СЗ - северо-западный.
Видимость - горизонтальная дальность видимости в метрах или километрах. При видимости от 1 до 10 км при отсутствии осадков обычно наблюдается дымка, при ухудшении видимости до 1 км и менее - туман. В сухую погоду видимость может ухудшаться дымом, пылью или мглою.
Явления - указаны атмосферные явления, наблюдавшиеся в срок или в последний час перед сроком; фигурными скобками обозначены явления, наблюдавшиеся между сроками (за 1-3 часа до срока); квадратными скобками обозначены град или гололедные отложения с указанием их диаметра в мм.
Облачность - указаны через наклонную черту общая и нижняя облачность в баллах и высота нижней границы облаков в метрах; квадратными скобками обозначены формы облаков: Ci - перистые, Cs - перисто-слоистые, Cc - перисто-кучевые, Ac - высококучевые, As - высокослоистые, Sc - слоисто-кучевые, Ns - слоисто-дождевые, Cu - кучевые, Cb - кучево-дождевые. Подробнее классификацию облаков см. в Атласе облаков (PDF).
T - Температура воздуха - температура, измеренная на высоте 2 м над землей.
Td - Температура точки росы - температура, при понижении до которой содержащийся в воздухе водяной пар достигнет насыщения.
f - Относительная влажность воздуха - влажноcть воздуха, измеренная на высоте 2 м над землей.
Te - Эффективная температура - температура, которую ощущает одетый по сезону человек в тени. Характеристика душности погоды. При расчете учитывается влияние влажности воздуха и скорости ветра на теплоощущения человека.
Tes - Эффективная температура на солнце - температура, которую ощущает человек, с поправкой на солнечный нагрев. Характеристика знойности погоды. Зависит от высоты солнца над горизонтом, облачности и скорости ветра. Ночью, в пасмурную погоду, а также при ветре 12 м/с и более поправка равна нулю.
P - Атмосферное давление - приведенное к уровню моря атмосферное давление.
Po - Атмосферное давление - измеренное на уровне метеостанции атмосферное давление.
Tmin - Минимальная температура - минимум температуры воздуха на высоте 2 м над землей.
Tmax - Максимальная температура - максимум температуры воздуха на высоте 2 м над землей.
R - Количество осадков - Количество выпавших осадков за период времени, мм. При наведении курсора мыши на число - период времени, за который выпало указанное количество осадков.
R24 - Количество осадков - Количество выпавших осадков за 24 часа, мм.
S - Снежный покров - Высота снежного покрова, см. При наведении курсора мыши на число - состояние снежного покрова и степень покрытия местности в баллах.